KD4EG Weather Reports


time (UTC)temp
F
wind
direction
speed
knots
gust
knots
rain 1hr
in
rain 24hr
in
rain mn
in
humidity
%
barometer
mb
20260510153254 75 209 2.6 4.3 0.00 0.00 0.00 53 1017.8
20260510152751 75 278 3.5 5.2 0.00 0.00 0.00 53 1017.7
20260510152248 75 269 2.6 4.3 0.00 0.00 0.00 53 1017.7
20260510151744 75 286 2.6 5.2 0.00 0.00 0.00 52 1017.8
20260510151243 74 312 2.6 4.3 0.00 0.00 0.00 54 1017.9
20260510150738 74 306 2.6 4.3 0.00 0.00 0.00 53 1017.9
20260510150234 74 303 0.9 1.7 0.00 0.00 0.00 54 1018.0
20260510145731 73 285 0.9 1.7 0.00 0.00 0.00 55 1017.9
20260510145227 73 191 4.3 5.2 0.00 0.00 0.00 55 1018.0
20260510144723 73 239 5.2 7.8 0.00 0.00 0.00 57 1018.1
20260510144221 72 212 2.6 2.6 0.00 0.00 0.00 56 1018.0
20260510143714 72 264 5.2 6.1 0.00 0.00 0.00 57 1018.0
20260510143211 72 188 1.7 2.6 0.00 0.00 0.00 58 1017.9
20260510142708 71 288 2.6 4.3 0.00 0.00 0.00 58 1017.9
20260510142204 71 327 5.2 7.0 0.00 0.00 0.00 60 1018.2
20260510141701 71 316 6.1 7.0 0.00 0.00 0.00 59 1018.2
20260510141200 69 115 0.9 1.7 0.00 0.00 0.00 61 1018.1
20260510140656 69 3 2.6 2.6 0.00 0.00 0.00 62 1017.9
20260510140155 68 311 4.3 7.0 0.00 0.00 0.00 63 1018.2
20260510135650 68 293 0.9 1.7 0.00 0.00 0.00 64 1018.3
20260510135147 67 33 0.9 1.7 0.00 0.00 0.00 65 1018.2
20260510134644 68 342 4.3 6.1 0.00 0.00 0.00 65 1018.3
20260510134141 67 9 6.1 8.7 0.00 0.00 0.00 65 1018.4
20260510133637 67 197 4.3 6.1 0.00 0.00 0.00 65 1018.4
20260510133132 67 236 2.6 2.6 0.00 0.00 0.00 66 1018.2
20260510132629 66 323 3.5 6.1 0.00 0.00 0.00 67 1018.2
20260510132127 65 310 2.6 2.6 0.00 0.00 0.00 67 1018.2
20260510131624 66 275 2.6 4.3 0.00 0.00 0.00 67 1018.3
20260510131121 65 242 0.9 0.9 0.00 0.00 0.00 67 1018.2
20260510130618 64 346 1.7 1.7 0.00 0.00 0.00 68 1018.3
20260510130115 64 310 1.7 2.6 0.00 0.00 0.00 69 1018.0
20260510125612 64 259 6.1 7.0 0.00 0.00 0.00 69 1018.4
20260510125108 64 6 3.5 5.2 0.00 0.00 0.00 69 1018.3
20260510124604 63 317 1.7 2.6 0.00 0.00 0.00 70 1018.1
20260510124102 63 301 1.7 1.7 0.00 0.00 0.00 71 1018.1
20260510123556 62 13 1.7 2.6 0.00 0.00 0.00 72 1018.2
20260510123053 62 301 4.3 7.0 0.00 0.00 0.00 74 1018.1
20260510122549 61 166 2.6 5.2 0.00 0.00 0.00 75 1018.1
20260510122045 60 266 0.9 1.7 0.00 0.00 0.00 76 1018.1
20260510121543 60 294 2.6 2.6 0.00 0.00 0.00 78 1018.0
20260510121040 59 300 2.6 2.6 0.00 0.00 0.00 79 1018.1
20260510120537 58 309 1.7 2.6 0.00 0.00 0.00 80 1017.9
20260510120032 58 259 2.6 4.3 0.00 0.00 0.00 81 1018.0
20260510115529 57 325 0.9 1.7 0.00 0.00 0.00 82 1018.0
20260510115026 57 204 1.7 2.6 0.00 0.00 0.00 83 1017.8
20260510114522 56 293 1.7 2.6 0.00 0.00 0.00 84 1017.8
20260510114019 55 291 0.9 1.7 0.00 0.00 0.00 84 1017.8
20260510113514 55 313 0.9 1.7 0.00 0.00 0.00 85 1017.5
20260510113012 55 299 1.7 2.6 0.00 0.00 0.00 85 1017.9
20260510112508 54 333 0.9 1.7 0.00 0.00 0.00 85 1017.6
20260510112005 54 329 1.7 1.7 0.00 0.00 0.00 86 1017.5
20260510111501 54 317 1.7 1.7 0.00 0.00 0.00 86 1017.5
20260510110957 54 285 0.0 0.9 0.00 0.00 0.00 86 1017.3
20260510110454 53 306 2.6 2.6 0.00 0.00 0.00 87 1017.2
20260510105950 53 306 1.7 1.7 0.00 0.00 0.00 87 1017.2
20260510105445 53 302 0.9 0.9 0.00 0.00 0.00 87 1017.0
20260510104940 53 304 0.9 1.7 0.00 0.00 0.00 88 1016.8
20260510104437 53 339 0.9 0.9 0.00 0.00 0.00 88 1016.7
20260510103933 53 298 1.7 1.7 0.00 0.00 0.00 88 1016.7
20260510103431 53 294 0.9 0.9 0.00 0.00 0.00 87 1016.8
20260510102926 53 325 0.9 0.9 0.00 0.00 0.00 87 1016.9
20260510102422 53 292 0.0 0.0 0.00 0.00 0.00 87 1016.6
20260510101919 53 216 0.9 1.7 0.00 0.00 0.00 86 1016.4
20260510101417 53 252 0.9 1.7 0.00 0.00 0.00 86 1016.3
20260510100915 53 260 0.0 0.9 0.00 0.00 0.00 86 1016.5
20260510100411 53 251 0.9 0.9 0.00 0.00 0.00 86 1016.4
20260510095908 53 302 4.3 5.2 0.00 0.00 0.00 86 1016.4
20260510095403 53 353 3.5 5.2 0.00 0.00 0.00 86 1016.4
20260510094902 53 284 0.9 0.9 0.00 0.00 0.00 86 1016.6
20260510094357 53 241 1.7 1.7 0.00 0.00 0.00 87 1016.3
20260510093854 53 61 0.9 0.9 0.00 0.00 0.00 87 1016.4
20260510093349 53 33 1.7 1.7 0.00 0.00 0.00 87 1016.2
20260510092846 52 42 0.9 0.9 0.00 0.00 0.00 88 1016.0
20260510092343 52 334 0.9 0.9 0.00 0.00 0.00 87 1015.9
20260510091838 53 15 0.9 1.7 0.00 0.00 0.00 86 1015.9
20260510091336 53 335 0.9 0.9 0.00 0.00 0.00 85 1015.7
20260510090832 54 117 1.7 1.7 0.00 0.00 0.00 83 1015.8
20260510090329 56 184 1.7 1.7 0.00 0.00 0.00 81 1016.0
20260510085824 57 147 2.6 2.6 0.00 0.00 0.00 78 1015.7
20260510085324 57 254 0.9 0.9 0.00 0.00 0.00 78 1015.7
20260510084820 57 336 2.6 2.6 0.00 0.00 0.00 78 1015.7
20260510084317 57 333 3.5 4.3 0.00 0.00 0.00 78 1015.7
20260510083814 58 286 2.6 2.6 0.00 0.00 0.00 77 1015.7
20260510083311 58 306 3.5 4.3 0.00 0.00 0.00 77 1015.5
20260510082806 58 315 2.6 2.6 0.00 0.00 0.00 77 1015.7
20260510082306 58 118 2.6 7.0 0.00 0.00 0.00 76 1015.6
20260510081802 59 356 3.5 4.3 0.00 0.00 0.00 74 1015.4
20260510081259 57 309 1.7 2.6 0.00 0.00 0.00 78 1015.3
20260510080754 56 321 2.6 4.3 0.00 0.00 0.00 79 1015.3
20260510080250 58 274 1.7 2.6 0.00 0.00 0.00 76 1015.4
20260510075747 60 294 1.7 1.7 0.00 0.00 0.00 73 1015.2
20260510075245 60 299 0.9 1.7 0.00 0.00 0.00 72 1015.2
20260510074741 60 273 4.3 6.1 0.00 0.00 0.00 72 1015.2
20260510074238 60 135 1.7 2.6 0.00 0.00 0.00 72 1015.0
20260510073734 58 309 5.2 6.1 0.00 0.00 0.00 75 1015.2
20260510073230 56 304 1.7 1.7 0.00 0.00 0.00 78 1015.0
20260510072726 56 299 0.9 0.9 0.00 0.00 0.00 80 1015.3
20260510072223 55 303 0.0 0.9 0.00 0.00 0.00 80 1015.0
20260510071719 55 290 0.9 0.9 0.00 0.00 0.00 80 1015.2
20260510071216 55 269 1.7 1.7 0.00 0.00 0.00 81 1015.0
20260510070714 55 279 0.9 0.9 0.00 0.00 0.00 82 1015.1
20260510070211 54 317 0.0 0.9 0.00 0.00 0.00 83 1014.9
20260510065706 54 300 0.0 0.9 0.00 0.00 0.00 84 1014.8
20260510065203 53 295 0.9 0.9 0.00 0.00 0.00 85 1014.8
20260510064659 53 290 0.0 0.9 0.00 0.00 0.00 86 1015.0
20260510064156 53 305 0.0 0.0 0.00 0.00 0.00 86 1014.9
20260510063654 53 299 0.0 0.9 0.00 0.00 0.00 86 1014.9
20260510063150 53 302 0.9 0.9 0.00 0.00 0.00 85 1015.0
20260510062646 53 301 1.7 1.7 0.00 0.00 0.00 84 1015.2
20260510062142 54 303 0.9 0.9 0.00 0.00 0.00 83 1015.3
20260510061637 55 307 0.9 0.9 0.00 0.00 0.00 81 1015.1
20260510061135 55 267 0.0 0.9 0.00 0.00 0.00 81 1015.3
20260510060631 55 296 0.9 0.9 0.00 0.00 0.00 81 1015.1
20260510060128 55 302 0.0 0.0 0.00 0.00 0.00 81 1015.1
20260510055624 55 304 0.0 0.9 0.00 0.00 0.00 80 1015.1
20260510055123 55 323 0.0 0.0 0.00 0.00 0.00 80 1015.3
20260510054617 56 303 0.0 0.0 0.00 0.00 0.00 80 1015.3
20260510054113 56 293 0.0 0.9 0.00 0.00 0.00 80 1015.4
20260510053612 56 305 0.9 0.9 0.00 0.00 0.00 80 1015.2
20260510053110 55 315 1.7 1.7 0.00 0.00 0.00 82 1015.2
20260510052605 55 304 0.0 0.9 0.00 0.00 0.00 82 1015.2
20260510052102 55 336 0.9 0.9 0.00 0.00 0.00 81 1015.2
20260510051558 55 309 1.7 1.7 0.00 0.00 0.00 81 1015.0
20260510051055 55 326 2.6 2.6 0.00 0.00 0.00 80 1015.3
20260510050552 55 304 0.9 0.9 0.00 0.00 0.00 80 1015.1
20260510050049 55 304 1.7 1.7 0.00 0.00 0.00 80 1015.0
20260510045546 55 308 0.0 0.9 0.00 0.00 0.00 80 1015.1
20260510045042 56 306 0.0 0.0 0.00 0.00 0.00 79 1015.0
20260510044539 56 308 0.9 0.9 0.00 0.00 0.00 79 1015.0
20260510044036 56 307 0.9 0.9 0.00 0.00 0.00 78 1014.9
20260510043532 56 281 2.6 2.6 0.00 0.00 0.00 79 1014.9
20260510043027 57 305 0.9 1.7 0.00 0.00 0.00 78 1015.3
20260510042522 57 302 0.9 0.9 0.00 0.00 0.00 77 1015.1
20260510042022 57 303 0.9 0.9 0.00 0.00 0.00 77 1015.1
20260510041520 57 310 0.0 0.0 0.00 0.00 0.00 76 1015.0
20260510041017 57 9 0.9 0.9 0.00 0.00 0.00 76 1015.0
20260510040513 58 326 0.0 0.9 0.00 0.00 0.00 76 1015.0
20260510040009 58 307 0.9 0.9 0.00 0.00 0.00 75 1014.8
20260510035506 58 303 0.0 0.0 0.00 0.00 0.00 75 1014.7
20260510035005 58 325 0.0 0.0 0.00 0.00 0.00 75 1014.8
20260510034504 58 324 0.0 0.9 0.00 0.00 0.00 74 1015.0
20260510034000 59 284 0.0 0.9 0.00 0.00 0.00 73 1015.0
20260510033456 59 312 0.9 0.9 0.00 0.00 0.00 73 1014.8
20260510032954 59 4 0.9 0.9 0.00 0.00 0.00 73 1014.7
20260510032450 59 303 0.0 0.0 0.00 0.00 0.00 73 1014.5
20260510031945 59 299 0.9 1.7 0.00 0.00 0.00 72 1014.7
20260510031441 59 320 0.0 0.0 0.00 0.00 0.00 71 1014.7
20260510030937 59 263 0.9 1.7 0.00 0.00 0.00 70 1014.9
20260510030432 59 311 0.0 0.0 0.00 0.00 0.00 71 1014.7
20260510025930 59 304 0.0 0.9 0.00 0.00 0.00 71 1014.4
20260510025427 58 305 0.9 0.9 0.00 0.00 0.00 73 1014.4
20260510024924 58 325 0.0 0.9 0.00 0.00 0.00 74 1014.5
20260510024420 59 294 1.7 1.7 0.00 0.00 0.00 74 1014.3
20260510023917 59 289 2.6 2.6 0.00 0.00 0.00 73 1014.2
20260510023413 59 325 0.9 1.7 0.00 0.00 0.00 73 1014.3
20260510022911 59 303 1.7 1.7 0.00 0.00 0.00 73 1014.4
20260510022409 59 298 1.7 1.7 0.00 0.00 0.00 72 1014.4
20260510021909 59 297 1.7 1.7 0.00 0.00 0.00 71 1014.4
20260510021407 60 325 1.7 1.7 0.00 0.00 0.00 70 1014.3
20260510020903 60 288 0.9 1.7 0.00 0.00 0.00 70 1014.5
20260510020358 60 301 1.7 1.7 0.00 0.00 0.00 69 1014.3
20260510015854 60 303 0.9 0.9 0.00 0.00 0.00 68 1014.1
20260510015350 61 304 0.0 0.0 0.00 0.00 0.00 67 1014.1
20260510014845 61 298 0.9 0.9 0.00 0.00 0.00 67 1013.9
20260510014343 61 301 0.9 0.9 0.00 0.00 0.00 66 1013.9
20260510013839 62 302 0.9 0.9 0.00 0.00 0.00 65 1013.8
20260510013335 62 306 0.0 0.9 0.00 0.00 0.00 64 1013.5
20260510012830 62 320 0.0 0.9 0.00 0.00 0.00 64 1013.4
20260510012330 63 336 0.9 0.9 0.00 0.00 0.00 62 1013.0
20260510011825 63 1 0.9 0.9 0.00 0.00 0.00 62 1013.2
20260510011320 64 302 0.9 0.9 0.00 0.00 0.00 61 1012.9
20260510010817 64 300 0.9 0.9 0.00 0.00 0.00 59 1012.8
20260510010314 64 303 1.7 1.7 0.00 0.00 0.00 59 1012.8
20260510005811 64 303 1.7 1.7 0.00 0.00 0.00 59 1012.8
20260510005307 64 300 0.9 0.9 0.00 0.00 0.00 60 1012.9
20260510004805 65 301 0.9 0.9 0.00 0.00 0.00 58 1012.8
20260510004302 66 298 1.7 1.7 0.00 0.00 0.00 57 1012.8
20260510003759 67 299 1.7 1.7 0.00 0.00 0.00 55 1012.7
20260510003257 67 318 1.7 1.7 0.00 0.00 0.00 53 1012.8
20260510002755 68 325 1.7 1.7 0.00 0.00 0.00 52 1012.7
20260510002253 69 304 0.9 0.9 0.00 0.00 0.00 50 1012.6
20260510001749 70 295 0.9 1.7 0.00 0.00 0.00 49 1012.5
20260510001248 69 331 0.9 1.7 0.00 0.00 0.00 47 1012.4
20260510000743 70 301 1.7 1.7 0.00 0.00 0.00 48 1012.5
20260510000241 70 295 1.7 1.7 0.00 0.00 0.00 48 1012.3
20260509235737 71 329 1.7 1.7 0.00 0.00 0.00 47 1012.1
20260509235234 71 303 1.7 1.7 0.00 0.00 0.00 46 1012.2
20260509234729 71 285 1.7 1.7 0.00 0.00 0.00 45 1012.0
20260509234227 72 269 3.5 4.3 0.00 0.00 0.00 45 1011.9
20260509233725 73 300 0.9 1.7 0.00 0.00 0.00 44 1012.1
20260509233222 73 303 1.7 1.7 0.00 0.00 0.00 43 1011.8
20260509232718 74 273 4.3 5.2 0.00 0.00 0.00 42 1011.9
20260509232216 74 266 2.6 4.3 0.00 0.00 0.00 42 1012.0
20260509231712 74 332 2.6 2.6 0.00 0.00 0.00 42 1011.9
20260509231209 74 311 3.5 5.2 0.00 0.00 0.00 42 1011.8
20260509230707 74 250 6.1 7.8 0.00 0.00 0.00 41 1011.9
20260509230203 74 287 2.6 2.6 0.00 0.00 0.00 42 1011.5
20260509225659 75 308 7.0 8.7 0.00 0.00 0.00 41 1011.7
20260509225154 76 284 3.5 6.1 0.00 0.00 0.00 42 1011.8
20260509224651 76 307 2.6 4.3 0.00 0.00 0.00 42 1011.5
20260509224148 76 272 1.7 4.3 0.00 0.00 0.00 42 1011.5
20260509223644 75 292 0.9 0.9 0.00 0.00 0.00 43 1011.7
20260509223142 74 305 1.7 1.7 0.00 0.00 0.00 45 1011.7
20260509222639 75 304 1.7 1.7 0.00 0.00 0.00 44 1011.5
20260509222134 75 286 1.7 1.7 0.00 0.00 0.00 44 1011.6
20260509221630 75 296 1.7 2.6 0.00 0.00 0.00 42 1011.4
20260509221126 75 312 1.7 2.6 0.00 0.00 0.00 42 1011.5
20260509220622 75 83 2.6 2.6 0.00 0.00 0.00 42 1011.5
20260509220118 76 136 4.3 5.2 0.00 0.00 0.00 42 1011.3
20260509215614 76 263 3.5 6.1 0.00 0.00 0.00 41 1011.3
20260509215111 75 347 1.7 2.6 0.00 0.00 0.00 42 1011.6
20260509214608 75 235 4.3 7.0 0.00 0.00 0.00 42 1011.6
20260509214105 75 312 2.6 2.6 0.00 0.00 0.00 44 1011.4
20260509213601 75 288 4.3 6.1 0.00 0.00 0.00 44 1011.1
20260509213058 75 303 3.5 4.3 0.00 0.00 0.00 43 1011.3
20260509212555 76 158 2.6 4.3 0.00 0.00 0.00 42 1011.3
20260509212052 75 330 0.9 1.7 0.00 0.00 0.00 43 1011.0
20260509211548 75 308 2.6 5.2 0.00 0.00 0.00 43 1011.0
20260509211044 75 148 4.3 7.0 0.00 0.00 0.00 43 1010.8
20260509210542 76 336 3.5 4.3 0.00 0.00 0.00 43 1010.9
20260509210038 76 196 3.5 4.3 0.00 0.00 0.00 42 1011.0
20260509205538 76 261 2.6 4.3 0.00 0.00 0.00 42 1011.1
20260509205033 76 256 3.5 5.2 0.00 0.00 0.00 42 1011.3
20260509204530 75 315 3.5 4.3 0.00 0.00 0.00 42 1011.0
20260509204026 75 316 3.5 6.1 0.00 0.00 0.00 42 1011.0
20260509203522 75 338 4.3 5.2 0.00 0.00 0.00 41 1010.9
20260509203022 75 193 0.9 1.7 0.00 0.00 0.00 42 1010.7
20260509202521 76 324 2.6 5.2 0.00 0.00 0.00 41 1011.0
20260509202017 76 197 0.9 1.7 0.00 0.00 0.00 40 1010.9
20260509201512 76 302 2.6 5.2 0.00 0.00 0.00 40 1010.8
20260509201010 76 322 0.9 0.9 0.00 0.00 0.00 41 1010.8
20260509200504 76 202 4.3 6.1 0.00 0.00 0.00 41 1010.8
20260509200001 75 2 4.3 6.1 0.00 0.00 0.00 41 1010.9
20260509195456 75 274 2.6 2.6 0.00 0.00 0.00 41 1010.9
20260509194955 75 60 3.5 6.1 0.00 0.00 0.00 42 1010.8
20260509194451 75 311 4.3 6.1 0.00 0.00 0.00 42 1010.9
20260509193949 76 145 6.1 7.0 0.00 0.00 0.00 41 1010.9
20260509193449 77 325 7.8 13.9 0.00 0.00 0.00 40 1010.9
20260509192945 77 330 5.2 8.7 0.00 0.00 0.00 41 1011.0
20260509192442 76 305 2.6 4.3 0.00 0.00 0.00 41 1010.9
20260509191937 77 240 5.2 6.1 0.00 0.00 0.00 41 1010.9
20260509191432 77 32 0.9 1.7 0.00 0.00 0.00 41 1011.2
20260509190928 76 158 4.3 5.2 0.00 0.00 0.00 42 1011.1
20260509190426 76 141 2.6 4.3 0.00 0.00 0.00 43 1011.1
20260509185923 76 216 4.3 6.1 0.00 0.00 0.00 42 1011.1
20260509185421 77 339 1.7 2.6 0.00 0.00 0.00 41 1011.3
20260509184917 77 294 8.7 13.0 0.00 0.00 0.00 41 1011.2
20260509184414 76 319 4.3 7.0 0.00 0.00 0.00 42 1011.3
20260509183911 76 245 5.2 7.0 0.00 0.00 0.00 42 1011.2
20260509183405 76 207 7.0 9.6 0.00 0.00 0.00 41 1011.3
20260509182902 76 175 5.2 7.8 0.00 0.00 0.00 41 1011.4
20260509182359 76 174 10.4 13.9 0.00 0.00 0.00 41 1011.6
20260509181856 76 239 6.1 7.8 0.00 0.00 0.00 44 1011.5
20260509181347 75 160 4.3 6.1 0.00 0.00 0.00 43 1011.7
20260509180845 75 216 4.3 5.2 0.00 0.00 0.00 43 1011.9
20260509180341 75 197 2.6 4.3 0.00 0.00 0.00 44 1011.9
20260509175838 75 223 7.0 13.9 0.00 0.00 0.00 44 1011.6
20260509175334 75 351 4.3 6.1 0.00 0.00 0.00 43 1012.0
20260509174830 75 194 3.5 5.2 0.00 0.00 0.00 44 1012.0
20260509174326 75 200 3.5 4.3 0.00 0.00 0.00 44 1011.8
20260509173822 75 70 4.3 5.2 0.00 0.00 0.00 45 1011.9
20260509173317 74 250 0.9 1.7 0.00 0.00 0.00 46 1012.1
20260509172814 74 156 5.2 6.1 0.00 0.00 0.00 54 1012.2
20260509172311 74 173 5.2 7.0 0.00 0.00 0.00 52 1012.1
20260509171806 74 224 2.6 2.6 0.00 0.00 0.00 54 1012.1
20260509171302 74 98 3.5 5.2 0.00 0.00 0.00 54 1011.9
20260509170759 71 233 2.6 2.6 0.00 0.00 0.00 55 1012.1
20260509170255 72 181 2.6 2.6 0.00 0.00 0.00 55 1012.3
20260509165754 72 148 5.2 7.0 0.00 0.00 0.00 57 1012.3
20260509165250 73 176 8.7 12.2 0.00 0.00 0.00 59 1012.4
20260509164746 71 298 3.5 6.1 0.00 0.00 0.00 60 1012.7
20260509164241 71 166 4.3 6.1 0.00 0.00 0.00 58 1012.9
20260509163738 71 221 3.5 5.2 0.00 0.00 0.00 58 1012.9
20260509163235 70 250 4.3 6.1 0.00 0.00 0.00 59 1012.9
20260509162733 71 209 5.2 6.1 0.00 0.00 0.00 59 1012.8
20260509162228 72 250 2.6 4.3 0.00 0.00 0.00 57 1012.7
20260509161723 72 152 3.5 4.3 0.00 0.00 0.00 58 1012.7
20260509161220 70 278 3.5 4.3 0.00 0.00 0.00 59 1012.7
20260509160715 70 200 1.7 2.6 0.00 0.00 0.00 59 1012.4
20260509160212 71 314 3.5 4.3 0.00 0.00 0.00 56 1012.8
20260509155707 70 286 0.9 0.9 0.00 0.00 0.00 57 1012.8
20260509155204 71 306 2.6 4.3 0.00 0.00 0.00 56 1012.7
20260509154700 70 312 2.6 2.6 0.00 0.00 0.00 57 1012.5
20260509154157 69 204 2.6 2.6 0.00 0.00 0.00 59 1012.7
20260509153654 69 302 0.9 1.7 0.00 0.00 0.00 58 1012.7